Tracking 19796 objects as of 19-Jul-2019
HD Live streaming from Space Station
objects crossing your sky now

COSMOS 1275 DEB

Track COSMOS 1275 DEB now!
10-day predictions


NORAD ID: 13798
Int'l Code: 1981-053GV
Perigee: 920.4 km
Apogee: 1,047.9 km
Inclination: 83.0 °
Period: 104.6 minutes
Semi major axis: 7355 km
RCS: 0.0159 m2 (small)
Launch date: June 4, 1981
Source: Commonwealth of Independent States (former USSR) (CIS)
Launch site: PLESETSK MISSILE AND SPACE COMPLEX (PKMTR)

Note: This is SATELLITE DEBRIS
aabbcc
Your satellite tracking list
Your tracking list is empty




NASA's NSSDC Master Catalog

Two Line Element Set (TLE):
1 13798U 81053GS  19199.87896150 -.00000043 +00000-0 -58798-4 0  9998
2 13798 083.0119 167.5578 0086673 017.8624 342.5546 13.76298760894592
Source of the keplerian elements: AFSPC